Tracking 31011 objects as of 13-Jul-2025
HD Live streaming from Space Station
objects crossing your sky now

YAOGAN-30 X

Track YAOGAN-30 X now!
10-day predictions


NORAD ID: 48423
Int'l Code: 2021-039A
Perigee: 570.8 km
Apogee: 576.4 km
Inclination: 35.0 °
Period: 96.0 minutes
Semi major axis: 6944 km
RCS: Unknown
Launch date: May 6, 2021
Source: People's Republic of China (PRC)
Launch site: Xichang Space Center, China (XSC)
Your satellite tracking list
Your tracking list is empty




NASA's NSSDC Master Catalog

Two Line Element Set (TLE):
1 48423U 21039A   25194.18950025  .00001941  00000-0  15472-3 0  9994
2 48423  34.9981 294.0022 0004088 332.8782  27.1712 15.00139870228577
Source of the keplerian elements: AFSPC